KI6AOK Weather Reports


time (UTC)temp
C
wind
direction
speed
KPH
gust
KPH
rain 1hr
cm
rain 24hr
cm
rain mn
cm
humidity
%
barometer
mb
20260507145655 14 336 0.0 0.0 0.00 0.00 0.00 87 1016.8
20260507145152 13 12 0.0 0.0 0.00 0.00 0.00 89 1016.7
20260507144649 13 35 0.0 3.2 0.00 0.00 0.00 91 1016.7
20260507144147 13 6 0.0 1.6 0.00 0.00 0.00 92 1016.7
20260507143643 12 24 0.0 4.8 0.00 0.00 0.00 92 1016.7
20260507143141 12 36 1.6 3.2 0.00 0.00 0.00 93 1016.5
20260507142636 12 55 3.2 4.8 0.00 0.00 0.00 92 1016.5
20260507142133 12 33 1.6 1.6 0.00 0.00 0.00 91 1016.4
20260507141629 12 50 1.6 6.4 0.00 0.00 0.00 90 1016.6
20260507141126 12 68 3.2 6.4 0.00 0.00 0.00 89 1016.6
20260507140622 12 51 3.2 3.2 0.00 0.00 0.00 88 1016.5
20260507140120 12 30 1.6 3.2 0.00 0.00 0.00 88 1016.3
20260507135617 12 19 1.6 3.2 0.00 0.00 0.00 87 1016.3
20260507135115 12 66 3.2 3.2 0.00 0.00 0.00 87 1016.5
20260507134610 11 32 1.6 3.2 0.00 0.00 0.00 88 1016.4
20260507134107 11 60 3.2 4.8 0.00 0.00 0.00 89 1016.2
20260507133603 11 56 3.2 4.8 0.00 0.00 0.00 90 1016.4
20260507133101 11 39 0.0 3.2 0.00 0.00 0.00 91 1016.2
20260507132557 11 295 0.0 0.0 0.00 0.00 0.00 92 1016.2
20260507132054 10 295 0.0 0.0 0.00 0.00 0.00 93 1016.2
20260507131551 10 295 0.0 0.0 0.00 0.00 0.00 93 1016.3
20260507131048 10 295 0.0 0.0 0.00 0.00 0.00 93 1016.3
20260507130544 10 295 0.0 0.0 0.00 0.00 0.00 93 1016.3
20260507130043 10 295 0.0 0.0 0.00 0.00 0.00 93 1016.1
20260507125541 10 295 0.0 0.0 0.00 0.00 0.00 93 1016.0
20260507125038 10 295 0.0 0.0 0.00 0.00 0.00 93 1016.0
20260507124534 10 295 0.0 0.0 0.00 0.00 0.00 92 1015.9
20260507124032 10 295 0.0 0.0 0.00 0.00 0.00 92 1016.0
20260507123530 10 295 0.0 0.0 0.00 0.00 0.00 92 1015.8
20260507123027 10 295 0.0 0.0 0.00 0.00 0.00 93 1016.0
20260507122522 10 295 0.0 0.0 0.00 0.00 0.00 92 1015.8
20260507122018 10 295 0.0 1.6 0.00 0.00 0.00 93 1015.8
20260507121514 10 295 0.0 0.0 0.00 0.00 0.00 92 1015.9
20260507121010 10 295 0.0 0.0 0.00 0.00 0.00 92 1015.8
20260507120506 10 295 0.0 0.0 0.00 0.00 0.00 92 1015.7
20260507120004 10 295 0.0 0.0 0.00 0.00 0.00 92 1016.0
20260507115459 10 295 0.0 0.0 0.00 0.00 0.00 92 1015.9
20260507114955 10 295 0.0 0.0 0.00 0.00 0.00 92 1015.7
20260507114451 10 295 0.0 0.0 0.00 0.00 0.00 92 1016.0
20260507113949 10 295 0.0 0.0 0.00 0.00 0.00 92 1015.9
20260507113446 10 295 0.0 0.0 0.00 0.00 0.00 92 1015.8
20260507112943 10 295 0.0 0.0 0.00 0.00 0.00 92 1015.9
20260507112441 10 295 0.0 0.0 0.00 0.00 0.00 92 1015.8
20260507111937 10 295 0.0 0.0 0.00 0.00 0.00 92 1015.8
20260507111435 10 295 0.0 0.0 0.00 0.00 0.00 92 1015.8
20260507110931 11 295 0.0 0.0 0.00 0.00 0.00 92 1016.1
20260507110427 11 295 0.0 0.0 0.00 0.00 0.00 92 1016.0
20260507105924 11 295 0.0 0.0 0.00 0.00 0.00 92 1016.2
20260507105421 11 295 0.0 0.0 0.00 0.00 0.00 92 1016.1
20260507104917 11 295 0.0 0.0 0.00 0.00 0.00 92 1016.0
20260507104414 11 295 0.0 0.0 0.00 0.00 0.00 92 1016.2
20260507103910 11 295 0.0 0.0 0.00 0.00 0.00 91 1016.1
20260507103407 11 295 0.0 0.0 0.00 0.00 0.00 91 1016.1
20260507102903 11 295 0.0 0.0 0.00 0.00 0.00 91 1016.2
20260507102400 11 295 0.0 0.0 0.00 0.00 0.00 91 1016.2
20260507101856 11 295 0.0 0.0 0.00 0.00 0.00 91 1016.1
20260507101356 11 295 0.0 0.0 0.00 0.00 0.00 91 1016.2
20260507100854 11 295 0.0 0.0 0.00 0.00 0.00 91 1016.2
20260507100351 11 295 0.0 0.0 0.00 0.00 0.00 91 1016.1
20260507095849 11 295 0.0 0.0 0.00 0.00 0.00 91 1016.3
20260507095345 11 295 0.0 0.0 0.00 0.00 0.00 91 1016.3
20260507094843 11 295 0.0 0.0 0.00 0.00 0.00 90 1016.3
20260507094339 11 295 0.0 0.0 0.00 0.00 0.00 91 1016.5
20260507093836 11 295 0.0 0.0 0.00 0.00 0.00 91 1016.5
20260507093335 11 295 0.0 0.0 0.00 0.00 0.00 91 1016.6
20260507092832 11 295 0.0 0.0 0.00 0.00 0.00 91 1016.5
20260507092328 11 295 0.0 0.0 0.00 0.00 0.00 90 1016.6
20260507091825 11 295 0.0 0.0 0.00 0.00 0.00 90 1016.6
20260507091322 11 295 0.0 0.0 0.00 0.00 0.00 90 1016.6
20260507090817 11 295 0.0 0.0 0.00 0.00 0.00 90 1016.7
20260507090314 11 295 0.0 0.0 0.00 0.00 0.00 90 1016.6
20260507085811 11 295 0.0 0.0 0.00 0.00 0.00 90 1016.6
20260507085308 12 295 0.0 0.0 0.00 0.00 0.00 90 1016.7
20260507084805 12 295 0.0 0.0 0.00 0.00 0.00 90 1016.7
20260507084301 12 295 0.0 0.0 0.00 0.00 0.00 90 1016.8
20260507083759 12 295 0.0 0.0 0.00 0.00 0.00 90 1016.9
20260507083255 12 295 0.0 0.0 0.00 0.00 0.00 90 1016.9
20260507082751 12 295 0.0 0.0 0.00 0.00 0.00 90 1016.9
20260507082247 12 295 0.0 0.0 0.00 0.00 0.00 90 1017.1
20260507081744 12 295 0.0 0.0 0.00 0.00 0.00 90 1016.9
20260507081240 12 295 0.0 0.0 0.00 0.00 0.00 90 1017.0
20260507080737 12 295 0.0 0.0 0.00 0.00 0.00 89 1017.0
20260507080233 12 295 0.0 0.0 0.00 0.00 0.00 89 1017.2
20260507075728 12 295 0.0 0.0 0.00 0.00 0.00 89 1017.1
20260507075225 12 295 0.0 0.0 0.00 0.00 0.00 90 1017.0
20260507074722 12 295 0.0 0.0 0.00 0.00 0.00 89 1017.1
20260507074220 12 295 0.0 0.0 0.00 0.00 0.00 89 1017.3
20260507073716 12 295 0.0 0.0 0.00 0.00 0.00 88 1017.2
20260507073213 12 295 0.0 0.0 0.00 0.00 0.00 88 1017.4
20260507072710 12 295 0.0 0.0 0.00 0.00 0.00 88 1017.4
20260507072208 12 295 0.0 0.0 0.00 0.00 0.00 88 1017.5
20260507071705 12 295 0.0 0.0 0.00 0.00 0.00 88 1017.4
20260507071201 12 295 0.0 0.0 0.00 0.00 0.00 88 1017.5
20260507070659 12 295 0.0 0.0 0.00 0.00 0.00 89 1017.3
20260507070155 12 295 0.0 0.0 0.00 0.00 0.00 90 1017.3
20260507065651 12 295 0.0 0.0 0.00 0.00 0.00 88 1017.3
20260507065148 13 295 0.0 0.0 0.00 0.00 0.00 88 1017.3
20260507064646 13 295 0.0 0.0 0.00 0.00 0.00 89 1017.4
20260507064144 13 295 0.0 0.0 0.00 0.00 0.00 88 1017.4
20260507063642 13 295 0.0 0.0 0.00 0.00 0.00 88 1017.4
20260507063138 13 295 0.0 0.0 0.00 0.00 0.00 88 1017.3
20260507062635 13 295 0.0 0.0 0.00 0.00 0.00 88 1017.5
20260507062133 13 295 0.0 0.0 0.00 0.00 0.00 88 1017.5
20260507061630 13 295 0.0 0.0 0.00 0.00 0.00 88 1017.7
20260507061128 13 295 0.0 0.0 0.00 0.00 0.00 88 1017.5
20260507060626 13 295 0.0 0.0 0.00 0.00 0.00 88 1017.4
20260507060122 13 295 0.0 0.0 0.00 0.00 0.00 88 1017.5
20260507055618 13 295 0.0 0.0 0.00 0.00 0.00 88 1017.5
20260507055114 13 295 0.0 0.0 0.00 0.00 0.00 88 1017.5
20260507054610 13 295 0.0 0.0 0.00 0.00 0.00 88 1017.7
20260507054107 13 295 0.0 0.0 0.00 0.00 0.00 88 1017.4
20260507053605 14 295 0.0 0.0 0.00 0.00 0.00 86 1017.4
20260507053104 14 295 0.0 0.0 0.00 0.00 0.00 86 1017.4
20260507052601 14 295 0.0 0.0 0.00 0.00 0.00 85 1017.5
20260507052057 15 295 0.0 0.0 0.00 0.00 0.00 85 1017.5
20260507051555 15 295 0.0 0.0 0.00 0.00 0.00 85 1017.3
20260507051052 15 295 0.0 1.6 0.00 0.00 0.00 85 1017.4
20260507050549 15 295 0.0 0.0 0.00 0.00 0.00 84 1017.3
20260507050045 15 295 0.0 0.0 0.00 0.00 0.00 84 1017.3
20260507045542 15 295 0.0 1.6 0.00 0.00 0.00 84 1017.4
20260507045039 15 296 0.0 0.0 0.00 0.00 0.00 83 1017.2
20260507044535 15 296 0.0 3.2 0.00 0.00 0.00 83 1017.4
20260507044032 15 302 1.6 1.6 0.00 0.00 0.00 83 1017.3
20260507043528 15 303 1.6 3.2 0.00 0.00 0.00 82 1017.3
20260507043026 15 306 0.0 3.2 0.00 0.00 0.00 82 1017.3
20260507042522 15 298 1.6 4.8 0.00 0.00 0.00 82 1017.3
20260507042017 15 286 1.6 3.2 0.00 0.00 0.00 82 1017.3
20260507041514 15 296 1.6 3.2 0.00 0.00 0.00 82 1017.0
20260507041011 16 306 1.6 3.2 0.00 0.00 0.00 81 1017.1
20260507040507 16 302 3.2 3.2 0.00 0.00 0.00 81 1017.3
20260507040003 16 304 3.2 3.2 0.00 0.00 0.00 80 1017.1
20260507035500 16 261 3.2 3.2 0.00 0.00 0.00 79 1017.1
20260507034956 16 305 3.2 4.8 0.00 0.00 0.00 78 1017.1
20260507034453 16 302 3.2 3.2 0.00 0.00 0.00 77 1016.9
20260507033951 16 295 3.2 4.8 0.00 0.00 0.00 76 1016.9
20260507033449 16 305 1.6 3.2 0.00 0.00 0.00 76 1017.0
20260507032946 16 267 1.6 3.2 0.00 0.00 0.00 76 1017.0
20260507032443 16 300 3.2 3.2 0.00 0.00 0.00 75 1017.0
20260507031939 16 290 3.2 3.2 0.00 0.00 0.00 74 1016.9
20260507031435 16 296 1.6 3.2 0.00 0.00 0.00 73 1016.7
20260507030932 16 306 1.6 3.2 0.00 0.00 0.00 71 1016.8
20260507030429 16 297 3.2 4.8 0.00 0.00 0.00 71 1016.7
20260507025927 17 293 4.8 4.8 0.00 0.00 0.00 71 1016.5
20260507025424 17 302 3.2 3.2 0.00 0.00 0.00 71 1016.5
20260507024922 17 303 3.2 3.2 0.00 0.00 0.00 70 1016.6
20260507024419 17 311 0.0 1.6 0.00 0.00 0.00 69 1016.5
20260507023914 17 293 3.2 3.2 0.00 0.00 0.00 68 1016.6
20260507023411 17 298 6.4 6.4 0.00 0.00 0.00 67 1016.4
20260507022909 17 278 4.8 4.8 0.00 0.00 0.00 67 1016.4
20260507022405 17 291 1.6 4.8 0.00 0.00 0.00 66 1016.3
20260507021901 17 280 6.4 9.7 0.00 0.00 0.00 64 1016.3
20260507021356 18 300 3.2 6.4 0.00 0.00 0.00 63 1016.4
20260507020854 18 293 0.0 3.2 0.00 0.00 0.00 63 1016.2
20260507020351 18 282 4.8 6.4 0.00 0.00 0.00 62 1016.1
20260507015848 18 275 4.8 6.4 0.00 0.00 0.00 60 1016.2
20260507015346 19 297 3.2 6.4 0.00 0.00 0.00 59 1016.2
20260507014843 19 274 4.8 6.4 0.00 0.00 0.00 58 1016.2
20260507014339 20 293 1.6 3.2 0.00 0.00 0.00 58 1016.1
20260507013836 20 292 6.4 9.7 0.00 0.00 0.00 58 1016.3
20260507013333 20 295 4.8 6.4 0.00 0.00 0.00 57 1016.1
20260507012830 20 296 3.2 6.4 0.00 0.00 0.00 57 1016.0
20260507012326 20 310 6.4 9.7 0.00 0.00 0.00 55 1016.1
20260507011823 20 288 3.2 9.7 0.00 0.00 0.00 56 1015.9
20260507011320 20 293 6.4 6.4 0.00 0.00 0.00 56 1016.2
20260507010820 20 289 6.4 11.3 0.00 0.00 0.00 55 1016.0
20260507010315 20 285 3.2 9.7 0.00 0.00 0.00 54 1016.0
20260507005813 20 280 3.2 4.8 0.00 0.00 0.00 54 1015.9
20260507005310 21 297 1.6 9.7 0.00 0.00 0.00 54 1016.1
20260507004806 21 305 1.6 6.4 0.00 0.00 0.00 53 1016.0
20260507004304 21 267 3.2 9.7 0.00 0.00 0.00 54 1015.9
20260507003800 21 293 3.2 11.3 0.00 0.00 0.00 55 1015.9
20260507003255 21 297 1.6 3.2 0.00 0.00 0.00 52 1016.0
20260507002751 21 303 1.6 6.4 0.00 0.00 0.00 54 1015.8
20260507002247 21 267 6.4 9.7 0.00 0.00 0.00 53 1015.9
20260507001745 21 285 6.4 14.5 0.00 0.00 0.00 54 1015.7
20260507001242 21 271 6.4 11.3 0.00 0.00 0.00 55 1015.7
20260507000738 22 294 6.4 9.7 0.00 0.00 0.00 54 1015.7
20260507000234 21 279 3.2 12.9 0.00 0.00 0.00 54 1015.6
20260506235731 21 311 6.4 6.4 0.00 0.00 0.00 54 1015.6
20260506235226 21 287 6.4 9.7 0.00 0.00 0.00 55 1015.7
20260506234723 21 292 9.7 12.9 0.00 0.00 0.00 54 1015.7
20260506234221 21 301 3.2 12.9 0.00 0.00 0.00 55 1015.5
20260506233718 21 291 4.8 9.7 0.00 0.00 0.00 56 1015.6
20260506233215 21 295 4.8 11.3 0.00 0.00 0.00 55 1015.5
20260506232711 21 296 6.4 6.4 0.00 0.00 0.00 56 1015.7
20260506232206 21 302 1.6 11.3 0.00 0.00 0.00 57 1015.7
20260506231704 22 287 8.0 14.5 0.00 0.00 0.00 54 1015.6
20260506231202 21 325 1.6 11.3 0.00 0.00 0.00 55 1015.6
20260506230658 21 327 6.4 9.7 0.00 0.00 0.00 55 1015.8
20260506230155 21 259 4.8 9.7 0.00 0.00 0.00 55 1015.8
20260506225652 22 309 6.4 12.9 0.00 0.00 0.00 55 1015.7
20260506225149 21 312 3.2 9.7 0.00 0.00 0.00 55 1015.9
20260506224645 21 285 8.0 11.3 0.00 0.00 0.00 56 1015.8
20260506224142 22 298 8.0 16.1 0.00 0.00 0.00 56 1015.9
20260506223638 22 297 1.6 16.1 0.00 0.00 0.00 55 1016.0
20260506223134 22 244 8.0 12.9 0.00 0.00 0.00 54 1016.0
20260506222631 22 300 3.2 14.5 0.00 0.00 0.00 55 1015.8
20260506222127 21 313 9.7 12.9 0.00 0.00 0.00 55 1016.0
20260506221625 21 271 8.0 12.9 0.00 0.00 0.00 55 1016.0
20260506221123 21 307 3.2 6.4 0.00 0.00 0.00 55 1016.0
20260506220619 21 304 12.9 16.1 0.00 0.00 0.00 56 1016.0
20260506220115 21 262 9.7 11.3 0.00 0.00 0.00 56 1016.3
20260506215612 22 246 9.7 12.9 0.00 0.00 0.00 54 1016.2
20260506215107 23 296 6.4 11.3 0.00 0.00 0.00 51 1016.3
20260506214604 22 333 0.0 11.3 0.00 0.00 0.00 55 1016.3
20260506214102 22 312 9.7 14.5 0.00 0.00 0.00 55 1016.2
20260506213600 22 268 6.4 14.5 0.00 0.00 0.00 53 1016.2
20260506213056 22 296 4.8 11.3 0.00 0.00 0.00 55 1016.3
20260506212553 21 294 3.2 9.7 0.00 0.00 0.00 55 1016.3
20260506212048 22 286 6.4 12.9 0.00 0.00 0.00 55 1016.4
20260506211544 22 305 9.7 12.9 0.00 0.00 0.00 54 1016.4
20260506211042 21 286 11.3 14.5 0.00 0.00 0.00 54 1016.6
20260506210538 22 266 8.0 16.1 0.00 0.00 0.00 54 1016.6
20260506210035 21 300 4.8 11.3 0.00 0.00 0.00 55 1016.5
20260506205532 22 290 3.2 12.9 0.00 0.00 0.00 53 1016.5
20260506205027 22 291 9.7 12.9 0.00 0.00 0.00 54 1016.5
20260506204525 22 285 11.3 17.7 0.00 0.00 0.00 54 1016.5
20260506204022 22 273 6.4 14.5 0.00 0.00 0.00 54 1016.6
20260506203520 21 263 6.4 11.3 0.00 0.00 0.00 55 1016.6
20260506203016 22 271 3.2 14.5 0.00 0.00 0.00 54 1016.7
20260506202513 22 274 6.4 14.5 0.00 0.00 0.00 53 1016.7
20260506202010 22 298 8.0 14.5 0.00 0.00 0.00 53 1016.7
20260506201508 21 250 6.4 11.3 0.00 0.00 0.00 53 1016.7
20260506201004 21 306 8.0 14.5 0.00 0.00 0.00 53 1016.8
20260506200500 22 288 8.0 11.3 0.00 0.00 0.00 52 1016.8
20260506195956 22 295 3.2 9.7 0.00 0.00 0.00 51 1016.9
20260506195454 22 227 6.4 12.9 0.00 0.00 0.00 50 1016.6
20260506194950 22 272 8.0 12.9 0.00 0.00 0.00 51 1016.7
20260506194448 22 277 3.2 11.3 0.00 0.00 0.00 51 1016.9
20260506193944 23 296 8.0 11.3 0.00 0.00 0.00 48 1017.0
20260506193442 23 301 6.4 14.5 0.00 0.00 0.00 46 1017.0
20260506192938 22 293 4.8 9.7 0.00 0.00 0.00 48 1017.0
20260506192435 23 274 8.0 11.3 0.00 0.00 0.00 47 1017.0
20260506191932 23 322 1.6 6.4 0.00 0.00 0.00 48 1017.2
20260506191428 23 292 3.2 4.8 0.00 0.00 0.00 47 1017.1
20260506190925 22 314 6.4 14.5 0.00 0.00 0.00 48 1017.3
20260506190422 22 307 6.4 9.7 0.00 0.00 0.00 46 1017.2
20260506185919 23 291 4.8 9.7 0.00 0.00 0.00 44 1017.3
20260506185416 22 293 3.2 6.4 0.00 0.00 0.00 47 1017.2
20260506184913 22 291 6.4 11.3 0.00 0.00 0.00 47 1017.3
20260506184410 22 288 1.6 3.2 0.00 0.00 0.00 46 1017.4
20260506183907 22 306 3.2 6.4 0.00 0.00 0.00 46 1017.5
20260506183402 22 236 0.0 4.8 0.00 0.00 0.00 48 1017.5
20260506182859 22 296 1.6 6.4 0.00 0.00 0.00 46 1017.7
20260506182357 22 252 1.6 6.4 0.00 0.00 0.00 48 1017.6
20260506181854 21 311 3.2 11.3 0.00 0.00 0.00 50 1017.6
20260506181352 21 316 6.4 9.7 0.00 0.00 0.00 50 1017.6
20260506180849 21 281 6.4 9.7 0.00 0.00 0.00 50 1017.7
20260506180345 21 284 6.4 11.3 0.00 0.00 0.00 49 1017.8
20260506175841 21 252 3.2 4.8 0.00 0.00 0.00 50 1017.8
20260506175338 21 98 1.6 12.9 0.00 0.00 0.00 52 1018.1
20260506174835 20 302 3.2 6.4 0.00 0.00 0.00 51 1017.9
20260506174333 20 251 8.0 9.7 0.00 0.00 0.00 53 1017.9
20260506173830 20 199 3.2 9.7 0.00 0.00 0.00 53 1017.8
20260506173327 20 180 3.2 4.8 0.00 0.00 0.00 53 1018.0
20260506172824 20 297 1.6 4.8 0.00 0.00 0.00 55 1018.0
20260506172321 20 180 3.2 4.8 0.00 0.00 0.00 55 1018.1
20260506171818 20 299 1.6 11.3 0.00 0.00 0.00 56 1018.3
20260506171315 20 325 3.2 6.4 0.00 0.00 0.00 57 1018.2
20260506170813 19 268 6.4 11.3 0.00 0.00 0.00 56 1018.0
20260506170308 20 198 4.8 9.7 0.00 0.00 0.00 55 1018.2
20260506165807 18 190 6.4 9.7 0.00 0.00 0.00 58 1018.2
20260506165306 19 282 4.8 6.4 0.00 0.00 0.00 57 1018.1
20260506164801 18 314 1.6 4.8 0.00 0.00 0.00 59 1018.2
20260506164258 18 316 3.2 4.8 0.00 0.00 0.00 58 1018.3
20260506163755 18 116 3.2 3.2 0.00 0.00 0.00 58 1018.3
20260506163249 18 28 3.2 4.8 0.00 0.00 0.00 58 1018.4
20260506162746 17 307 1.6 1.6 0.00 0.00 0.00 61 1018.4
20260506162244 18 309 4.8 6.4 0.00 0.00 0.00 59 1018.4
20260506161741 18 304 1.6 3.2 0.00 0.00 0.00 58 1018.3
20260506161238 17 319 1.6 4.8 0.00 0.00 0.00 60 1018.0
20260506160736 17 321 1.6 4.8 0.00 0.00 0.00 60 1018.2
20260506160232 17 303 1.6 4.8 0.00 0.00 0.00 63 1018.1
20260506155731 17 0 0.0 4.8 0.00 0.00 0.00 64 1018.5
20260506155227 17 108 3.2 4.8 0.00 0.00 0.00 64 1018.2
20260506153335 16 32 0.0 1.6 0.00 0.00 0.00 67 1018.3
20260506152831 16 11 3.2 3.2 0.00 0.00 0.00 66 1018.5
20260506152329 16 35 0.0 1.6 0.00 0.00 0.00 68 1018.3
20260506151828 16 48 3.2 3.2 0.00 0.00 0.00 69 1018.3
20260506151324 15 6 0.0 1.6 0.00 0.00 0.00 71 1018.5
20260506150821 15 42 1.6 3.2 0.00 0.00 0.00 71 1018.3
20260506150318 15 27 0.0 3.2 0.00 0.00 0.00 73 1018.5
20260506145814 15 64 3.2 4.8 0.00 0.00 0.00 73 1018.4